Location: ??
(35.4032°N, 139.3073°E)
Time: 09:20:34
(UTC+00:00)

ACS3 Solar Sail - Visible Passes

Search period start: 12 July 2025 00:00
Search period end: 22 July 2025 00:00
Orbit: 912 x 1023 km, 97.5° (Epoch: 11 July)

Date Brightness Start Highest point End Pass type
(mag) Time Alt. Az. Time Alt. Az. Time Alt. Az.
12 Jul 4.5 18:09:46 10° ENE 18:11:41 11° E 18:13:35 10° ESE visible
13 Jul 4.2 18:30:13 10° NE 18:34:29 20° E 18:38:49 10° SE visible
14 Jul 3.6 18:51:53 10° NNE 18:57:13 32° E 19:02:38 10° SSE visible
17 Jul 4.3 18:17:36 10° NE 18:21:14 16° E 18:24:54 10° SE visible
18 Jul 3.8 18:38:54 10° NE 18:43:56 26° E 18:49:02 10° SSE visible
19 Jul 3.1 19:00:47 10° NNE 19:06:32 42° E 19:12:23 10° SSE visible
21 Jul 4.5 18:05:04 10° ENE 18:07:43 13° E 18:10:23 10° ESE visible
